Temp
23 24 24 24 24 24 25 25 25 25 25 24 24 23 23 23 23 22 22 21 21 21 21 21 21 21 21 21 21 21 20 20 20 19 19 19 18 19 19 19 19 19 19
23 23 24 24 24 24 25 24 24 24 24 24 24 23 22 22 22 22 22 21 21 21 21 21 21 21 21 21 21 21 20 20 20 19 19 19 19 19 19 19 19 19 19
23 23 23 23 24 24 24 24 24 24 24 24 24 23 23 22 22 22 22 21 21 21 21 21 21 21 21 21 21 21 20 20 20 19 19 19 19 19 19 19 19 18 19
21 22 22 22 23 23 24 24 24 24 23 23 23 23 23 23 22 22 22 21 21 21 21 21 21 21 21 21 21 21 20 20 20 20 19 19 19 19 19 19 19 19 19
20 21 21 21 21 21 22 22 23 23 23 23 23 23 22 22 22 22 21 21 21 21 21 21 21 21 21 20 20 20 20 20 20 20 20 20 19 19 19 19 19 19 19
19 19 20 21 21 22 22 22 21 21 22 22 22 22 22 22 21 21 21 21 21 21 20 20 20 20 20 20 20 20 20 20 20 20 20 20 20 19 19 19 19 19 19
18 19 20 20 21 21 22 21 21 21 20 20 20 21 22 22 22 22 21 21 20 20 20 20 20 20 20 20 20 20 20 20 20 20 20 20 20 20 20 19 19 19 19
18 19 19 20 20 21 21 21 21 21 21 20 20 19 19 19 20 20 21 21 21 20 20 19 19 20 20 20 20 20 20 20 20 20 20 20 21 21 20 20 20 19 19
19 19 19 19 19 20 20 20 20 20 20 20 20 20 19 19 19 20 20 20 20 20 20 20 19 20 19 20 20 20 20 20 20 20 20 20 20 20 20 20 20 19 19
19 19 19 20 20 19 19 18 18 19 20 20 20 20 20 19 19 19 19 19 19 19 19 19 19 19 19 19 19 19 20 19 20 20 20 20 20 20 20 20 19 19 19
18 18 19 20 20 20 19 18 18 19 19 18 18 18 19 19 19 19 19 19 19 19 19 19 19 19 19 19 19 19 19 19 19 20 20 20 20 20 20 20 20 19 19
15 16 17 18 19 19 18 18 17 18 18 17 17 18 18 18 18 18 18 18 18 18 19 19 19 19 18 19 19 19 19 19 20 20 20 20 20 19 19 20 20 19 19
12 14 14 15 16 16 16 16 16 16 16 17 17 17 17 17 17 17 17 18 18 18 18 18 17 17 18 18 18 18 18 19 19 19 20 20 20 20 20 19 19 19 19
13 13 13 14 14 14 14 15 15 15 15 15 15 16 16 16 16 16 16 16 17 17 17 17 17 17 17 17 18 18 18 18 18 18 18 19 19 19 20 21 20 20 20
13 12 12 13 13 13 14 13 13 13 13 13 13 14 14 14 14 14 14 15 15 15 16 16 16 16 17 17 18 18 18 18 18 17 17 18 18 19 19 20 20 20 20
11 11 12 12 12 12 13 12 12 12 12 12 12 12 12 12 12 13 13 13 14 13 13 14 14 14 15 15 17 17 18 18 18 18 18 17 17 17 18 17 19 19 19
11 11 11 11 11 12 11 11 11 11 11 11 11 11 11 11 11 11 11 11 11 11 11 12 13 13 13 14 15 16 17 17 17 17 18 17 16 16 16 16 16 16 17
11 11 10 11 11 11 11 11 10 10 10 9 9 9 9 10 10 10 10 9 9 9 10 10 11 11 11 12 13 15 15 16 17 16 16 17 16 16 16 16 16 16 16
11 10 10 10 10 10 10 10 9 9 9 8 8 8 8 8 8 8 8 8 8 8 8 8 9 8 8 10 11 13 15 16 16 16 16 15 15 15 15 15 15 15 15
10 10 10 10 9 9 9 9 9 8 8 7 7 7 7 7 7 8 7 7 7 7 7 7 6 7 6 7 10 12 15 15 14 14 14 14 13 14 14 14 14 15 15
9 9 9 9 9 9 8 8 8 7 6 6 6 6 6 6 6 6 6 6 6 6 4 5 5 5 5 5 7 10 13 13 12 12 11 12 12 13 13 13 13 14 14
8 8 8 9 9 8 8 8 7 6 5 4 4 4 4 4 4 4 4 3 3 3 3 3 3 3 3 4 5 6 7 10 12 11 11 11 11 11 11 11 12 12 12
7 7 7 7 8 8 8 7 6 5 4 4 3 3 2 2 2 2 2 2 2 2 2 2 2 3 3 4 5 5 7 7 7 10 10 9 9 9 9 10 10 10 11
6 6 6 6 7 7 7 7 6 6 4 2 2 2 2 2 2 2 2 2 2 2 2 2 2 2 2 3 4 4 4 5 7 7 9 9 8 7 7 8 9 9 9
6 5 5 5 5 5 6 6 6 4 2 2 1 1 1 1 1 1 1 2 2 2 2 2 1 1 1 1 1 2 3 4 6 5 7 8 6 6 6 7 7 7 7
5 5 4 4 4 4 5 4 4 3 2 1 1 1 1 1 1 1 1 1 1 1 0 0 0 -0 -0 -0 -0 -0 0 1 2 2 3 3 4 6 5 7 6 6 5
Height
793 794 795 795 796 798 800 801 803 804 804 804 804 805 805 807 809 810 812 813 815 816 816 817 819 820 821 821 822 823 824 824 825 826 827 829 829 828 830 831 832 834 835
794 796 798 798 799 799 800 802 804 805 806 806 806 807 808 809 810 811 813 815 816 816 817 818 819 820 820 821 821 823 824 825 826 828 829 830 830 830 832 833 834 835 836
795 797 799 800 800 801 801 802 804 805 806 807 808 809 810 810 811 813 814 815 816 817 818 818 819 819 819 820 821 822 824 825 826 828 830 832 831 832 833 833 834 836 836
797 797 799 801 802 802 803 804 804 804 806 808 809 809 811 811 813 814 816 816 817 818 819 820 820 820 820 820 821 822 823 825 826 828 829 831 833 833 835 834 836 836 837
797 798 800 801 802 803 803 804 806 807 807 809 809 810 812 813 814 816 817 818 819 820 820 821 822 822 821 821 822 824 825 825 825 826 828 830 832 834 835 836 836 838 838
799 800 801 802 803 804 804 804 805 808 808 809 810 812 813 814 815 816 817 819 819 820 821 822 822 823 823 824 824 825 825 826 827 827 826 827 829 831 833 835 836 838 839
801 802 802 803 803 804 805 805 806 807 809 809 810 812 813 813 814 815 816 818 819 820 820 821 821 822 823 824 825 825 825 826 826 827 827 826 826 828 830 832 834 837 839
803 803 803 804 804 804 804 806 806 807 808 809 809 811 812 814 815 815 816 816 817 818 819 820 820 822 823 824 824 825 825 825 825 825 826 826 826 826 825 827 829 833 836
804 804 804 804 804 805 805 806 807 807 807 808 808 809 810 812 813 814 814 816 816 817 818 818 819 820 822 822 823 824 823 823 823 823 824 825 826 825 825 826 827 829 832
803 805 805 805 805 806 807 807 808 808 807 807 808 808 809 810 811 812 812 813 814 815 815 816 817 818 819 821 822 823 821 821 820 820 821 821 822 823 824 825 826 827 829
802 804 806 805 805 806 806 807 807 807 807 807 807 807 807 808 809 810 810 811 812 813 813 813 813 814 815 816 817 818 818 817 818 818 817 817 819 820 820 821 823 825 827
802 804 805 805 805 805 805 806 806 806 806 807 807 807 806 807 807 808 809 810 810 810 810 810 810 811 811 812 812 813 813 814 813 812 813 814 816 817 818 818 819 821 823
805 805 806 807 806 806 806 806 806 806 807 807 807 807 806 806 807 807 808 809 809 809 809 809 810 810 809 809 809 809 809 808 809 809 808 809 809 810 811 814 815 817 819
804 805 806 806 807 806 807 807 807 807 807 807 807 807 806 806 807 807 807 808 809 808 808 807 809 809 809 808 807 806 807 806 806 805 805 805 805 804 804 805 809 810 811
803 805 806 807 808 808 808 808 808 808 808 808 808 808 807 807 807 807 807 807 807 808 807 807 807 807 807 806 805 804 803 803 802 801 800 800 801 800 801 800 801 802 803
804 804 805 806 808 808 807 809 809 810 809 809 809 809 809 808 808 807 807 807 806 807 807 806 806 806 805 803 801 801 799 798 797 796 796 795 795 796 797 796 798 797 798
804 804 806 807 808 809 809 809 810 810 811 810 810 810 809 809 809 808 808 807 806 807 808 807 805 805 804 802 798 798 796 794 792 792 791 791 791 791 792 794 794 795 795
803 805 807 807 807 810 809 810 811 812 812 812 812 812 811 811 810 809 808 807 807 807 807 805 803 802 802 799 796 795 792 789 788 787 788 788 787 787 787 788 790 790 789
805 805 807 808 808 810 811 812 812 813 813 814 813 813 813 812 811 810 809 808 808 807 806 805 805 804 802 798 794 791 788 785 783 782 783 784 784 784 783 783 783 784 784
807 806 805 807 808 809 810 811 813 813 814 814 814 814 814 813 811 810 809 808 807 806 805 804 804 804 803 799 793 788 784 782 781 779 778 778 780 781 780 780 779 778 779
806 807 805 806 807 809 810 811 812 814 815 815 815 815 815 814 812 811 810 809 808 807 806 805 804 803 802 801 795 788 784 781 781 779 777 777 779 779 778 777 776 774 774
805 807 806 806 807 809 810 811 812 814 816 817 817 817 816 814 813 812 812 812 810 809 807 807 806 805 805 805 804 801 795 784 782 781 779 778 778 780 778 778 776 775 773
802 804 805 806 806 808 809 810 812 814 817 818 818 817 816 816 815 815 815 813 811 810 809 809 810 809 808 807 807 808 805 800 793 784 781 783 778 779 781 780 779 777 775
799 802 804 804 805 807 809 809 811 813 815 818 819 819 818 817 816 815 814 812 811 810 810 810 810 810 809 810 809 808 809 809 801 792 783 783 783 781 782 782 781 779 776
797 801 804 805 806 807 807 808 809 812 816 819 820 819 818 817 815 814 812 810 810 812 812 812 811 810 810 811 811 810 807 804 803 801 790 782 785 783 782 782 783 781 779
795 799 802 804 806 807 808 810 810 812 815 818 820 819 818 817 815 813 812 812 813 816 815 813 813 813 813 810 809 810 808 808 805 807 800 792 791 785 781 781 780 779 778
Wind_Speed
9 10 10 10 10 10 10 11 12 12 13 14 16 17 18 18 18 15 14 15 15 13 11 10 8 6 5 6 7 9 10 10 10 9 8 8 9 10 11 10 11 12 10
12 10 8 9 9 9 10 10 10 11 11 12 14 15 17 17 15 14 14 14 13 12 11 10 8 6 6 6 6 8 9 9 9 8 7 7 7 9 10 8 8 12 12
15 11 8 7 8 8 9 9 9 9 9 10 11 12 13 14 14 13 13 13 11 10 10 10 8 7 6 6 5 6 7 8 8 7 6 5 7 6 8 9 10 11 12
14 12 9 6 5 6 7 8 9 9 8 8 8 9 9 11 11 11 11 10 10 9 9 8 6 6 6 6 5 5 6 7 8 7 4 4 5 4 2 6 9 10 11
13 11 10 8 7 7 7 6 5 6 7 6 6 6 7 8 8 9 8 8 8 7 7 6 5 4 4 5 5 4 4 5 7 6 6 4 3 4 4 3 7 9 11
14 12 10 8 7 7 8 7 5 3 3 4 4 5 5 6 6 7 7 7 7 7 7 6 6 4 4 4 4 3 2 2 3 5 6 5 5 6 6 7 9 9 10
15 13 11 8 7 7 6 5 4 3 1 1 1 3 4 5 6 6 7 7 7 7 8 7 7 7 6 6 6 5 4 4 3 4 5 7 8 9 8 8 10 11 11
18 15 13 10 8 6 5 3 3 2 1 1 1 2 3 4 5 6 7 7 8 8 9 9 9 9 9 8 8 8 8 7 7 7 7 9 9 10 10 13 13 14 14
19 16 14 13 11 7 5 3 2 3 3 3 2 2 3 4 5 6 7 8 8 9 9 10 11 12 12 12 10 10 11 11 12 12 11 11 11 11 8 12 15 16 16
19 16 15 13 10 10 7 7 4 3 3 3 4 5 5 5 5 6 6 7 8 9 9 10 11 12 13 13 14 15 15 13 16 16 16 15 14 14 15 15 20 19 18
18 16 13 11 10 7 6 6 3 2 4 5 6 6 5 5 6 6 6 7 8 9 9 10 10 11 12 14 16 17 18 19 18 20 20 19 17 16 16 17 15 22 20
16 14 12 10 9 6 6 4 4 4 3 4 4 4 3 3 3 3 3 4 5 5 6 8 10 12 12 13 15 16 18 21 21 22 23 22 22 19 17 17 16 20 23
14 14 12 11 10 8 8 7 6 5 4 3 5 5 4 4 4 4 3 2 3 5 5 6 8 7 9 9 9 12 13 16 21 22 22 22 22 22 20 18 17 19 24
13 13 11 11 10 12 11 11 10 10 9 7 8 7 7 6 6 6 6 6 6 5 5 5 5 6 6 7 8 9 11 14 16 20 22 20 22 22 24 21 21 23 24
15 13 12 11 12 13 13 13 13 13 13 13 11 10 9 8 8 7 7 6 6 6 5 4 5 5 5 6 9 12 13 13 14 15 19 21 22 23 24 25 24 24 28
15 15 13 12 13 12 13 13 14 14 14 14 14 14 11 10 9 8 7 8 7 8 7 7 8 9 10 9 10 13 16 17 17 16 17 19 20 22 24 25 20 19 20
15 15 14 14 13 12 14 14 13 14 13 14 15 14 14 13 12 10 10 11 11 11 11 10 10 11 13 13 13 16 18 19 21 20 18 18 19 21 22 25 26 27 27
15 14 15 15 15 13 14 14 15 15 16 17 16 16 16 15 14 13 14 14 13 13 14 14 16 16 16 16 17 18 18 21 22 23 21 20 20 20 22 24 26 27 28
15 16 16 15 16 15 14 15 15 15 16 17 17 18 17 17 16 16 16 16 15 15 16 17 17 18 18 21 23 21 20 20 20 21 20 18 17 17 19 20 19 17 19
14 14 15 15 16 16 16 15 15 15 15 14 16 16 16 16 15 15 15 15 16 17 18 19 20 19 15 24 24 20 19 18 16 16 15 11 9 11 12 12 12 10 8
14 13 14 15 17 17 17 14 11 13 12 13 13 13 15 16 16 16 16 15 16 17 18 19 22 22 18 27 15 23 12 8 7 11 9 5 4 3 3 4 8 5 4
15 12 12 13 16 17 15 12 9 12 12 12 11 12 14 15 16 16 17 17 17 18 18 19 21 20 10 21 11 9 4 6 7 10 9 13 14 13 13 12 11 12 10
18 15 13 14 14 14 14 14 14 12 9 8 11 13 16 16 16 16 16 16 18 19 20 20 19 18 15 14 16 7 4 3 13 8 10 10 15 17 18 16 17 14 11
19 17 16 15 15 14 14 14 12 7 7 8 10 10 12 13 14 14 15 17 18 18 19 17 15 16 15 13 10 12 9 9 3 5 9 17 17 18 21 20 19 13 11
22 20 16 14 14 14 14 14 15 16 14 11 9 10 12 13 14 15 16 17 18 16 15 14 14 14 12 9 9 9 9 13 10 5 9 11 20 20 17 21 15 12 9
25 22 19 16 15 13 14 14 15 17 16 13 11 12 12 13 15 16 16 16 15 14 15 14 13 12 11 9 9 9 8 4 9 5 4 11 16 15 21 21 10 9 10
Wind_Direction
167 156 156 139 129 128 127 122 112 107 105 105 114 127 140 143 146 145 148 150 151 152 155 150 144 131 111 96 82 65 64 67 70 82 90 107 119 123 125 130 128 131 129
152 142 146 139 133 136 137 135 123 115 112 110 116 127 138 146 149 150 151 154 154 155 154 153 147 135 118 110 92 76 73 69 75 91 102 114 122 127 125 124 146 143 142
129 126 124 128 140 145 147 143 138 125 119 116 118 126 138 145 151 153 155 156 157 159 158 158 153 146 137 128 110 90 83 79 85 101 116 132 128 133 146 155 163 155 154
106 106 101 104 121 140 145 147 147 142 132 129 129 128 136 145 150 154 160 163 167 167 166 170 168 168 166 160 143 116 105 100 107 113 120 144 154 163 142 177 176 171 168
101 102 100 104 106 111 123 127 132 151 146 144 141 142 145 151 157 163 170 174 180 186 187 192 192 190 186 181 161 143 123 123 134 145 138 145 202 221 235 217 208 191 185
106 103 109 117 111 114 117 122 116 104 145 160 168 170 168 169 173 180 188 196 199 202 216 224 225 221 218 209 190 177 156 139 150 179 192 199 203 230 238 245 231 216 205
105 102 102 106 104 103 105 113 120 130 143 129 245 232 220 207 202 202 207 215 222 226 228 235 244 244 234 232 226 223 221 228 226 223 229 223 225 230 229 235 235 226 221
102 100 98 98 93 100 113 120 133 143 139 176 210 253 265 262 249 242 235 231 234 238 241 247 255 261 259 251 245 241 244 248 260 257 256 254 245 246 246 224 223 221 222
94 94 92 89 83 82 105 131 171 202 211 231 244 257 261 267 263 256 258 259 259 260 261 258 264 269 270 269 260 256 253 258 262 265 262 263 262 250 229 229 233 226 224
93 88 83 83 81 75 70 75 56 24 354 322 285 264 262 273 269 266 264 269 274 274 272 275 276 276 278 280 277 276 267 262 263 268 268 263 260 258 261 258 246 234 229
86 80 79 79 78 81 80 81 84 42 350 349 355 343 293 286 281 285 285 284 287 284 282 277 275 274 275 272 270 268 270 268 270 272 273 270 266 261 261 258 253 237 239
82 74 68 67 68 72 80 88 93 90 40 345 3 321 338 2 14 334 326 320 307 300 291 287 282 278 276 275 274 272 270 271 266 261 266 273 277 274 270 265 253 244 241
87 83 74 67 67 69 76 78 80 85 80 48 33 23 52 70 83 90 80 334 18 20 348 340 326 315 300 294 292 284 286 276 270 271 271 270 266 268 265 264 257 245 242
96 84 80 77 72 73 75 74 75 74 68 63 47 46 52 65 68 66 59 47 24 22 28 23 351 354 332 324 317 312 303 290 284 279 279 277 269 261 260 257 257 244 238
110 106 99 95 89 86 81 78 75 73 69 65 59 51 53 57 62 55 52 47 27 12 3 351 343 331 315 312 314 307 302 295 292 284 280 278 274 270 264 259 255 249 241
122 109 106 104 97 96 91 86 81 77 73 67 61 54 52 51 51 50 39 28 22 8 357 338 331 320 308 299 294 292 290 288 284 281 282 282 277 273 272 265 250 245 237
125 119 116 119 114 104 100 97 92 83 77 70 63 56 51 46 44 38 29 23 18 0 353 341 330 319 310 304 295 289 285 282 279 277 272 271 272 276 273 271 271 261 255
135 134 128 124 127 118 112 104 96 88 81 74 66 59 53 47 43 40 34 29 21 12 3 358 350 340 332 323 313 302 291 282 278 276 272 268 267 269 271 268 268 266 270
147 140 130 128 128 128 119 109 98 87 76 69 61 53 47 44 40 38 37 33 25 20 14 8 3 357 346 336 325 311 301 290 285 284 279 274 279 280 280 281 280 275 264
154 145 138 134 134 139 132 118 102 88 74 60 50 41 33 30 28 27 28 24 18 15 12 8 7 6 360 348 330 316 309 304 298 298 293 287 291 300 296 292 296 292 280
159 153 146 146 143 152 144 128 112 88 70 58 46 35 30 28 28 27 25 19 16 16 13 9 1 0 1 -0 353 338 322 314 357 45 58 66 64 24 13 21 27 4 314
162 160 150 149 150 164 161 146 132 115 86 70 56 47 39 35 34 34 32 32 27 25 24 21 17 10 2 10 352 325 336 335 2 9 52 60 52 35 32 28 21 19 30
165 158 147 142 147 158 163 156 143 126 103 79 58 51 42 40 41 40 37 34 33 31 30 27 16 16 5 4 11 18 339 328 339 346 20 27 30 21 9 8 3 6 2
165 160 150 139 136 143 158 159 162 158 124 89 75 67 56 53 53 49 47 43 37 34 33 25 17 18 15 4 2 350 342 322 323 315 321 332 346 5 0 359 357 355 4
165 159 151 143 137 137 138 142 138 120 117 112 100 83 71 62 56 52 51 47 43 38 35 24 25 22 29 23 11 348 337 331 305 316 293 321 332 340 339 358 356 1 5
165 159 154 144 131 131 134 132 129 126 125 118 104 88 73 62 56 54 53 50 50 39 35 38 36 35 29 28 21 13 13 349 349 332 312 326 311 323 329 324 344 21 17